Home > Weather > Kawasaki > Past weeks

Flag for Japan Past Weather in Kawasaki, Japan — Yesterday and Last 2 Weeks

Now
73 °F

Partly sunny.


Feels Like: 77 °F
Forecast: 65 / 78 °F
Wind: 10 mph from Southeast

Location: Tokyo International Airport

Current Time: Jun 1, 2016 at 12:49:56 PM

Latest Report: Jun 1, 2016 at 12:30 PM


Visibility: N/A

Pressure: 29.50 "Hg

Humidity: 41%

Dew Point: 48 °F

Location of KawasakiLocation

Past Weather in Kawasaki — Graph

°F

Kawasaki Temperature Yesterday

Maximum temperature yesterday: 75 °F (at 12:30 PM)
Minimum temperature yesterday: 63 °F (at 1:00 AM)
Average temperature yesterday: 69 °F

High & Low Weather Summary for the Past Weeks

 TemperatureHumidityPressure
High84 °F (May 23, 1:00 PM)100% (May 17, 11:00 AM)30.15 "Hg (May 17, 11:00 AM)
Low59 °F (May 20, 5:00 AM)31% (May 23, 3:00 PM)29.50 "Hg (Jun 1, 12:30 AM)
Average69 °F73%29.89 "Hg
* Reported May 17 11:00 AM — Jun 1 11:30 AM, Kawasaki, Weather by CustomWeather, © 2016

Note: Actual official high and low records may vary slightly from our data, if they occured in-between our weather recording intervals... More about our weather records

Advertising

Kawasaki Weather History for the Previous 24 Hours

Scroll right to see more
 ConditionsComfort  
Time TempWeatherWind HumidityBarometerVisibility
11:30 AM
Wed, Jun 1
73 °FPartly sunny.8 mph41%29.53 "HgN/A
11:00 AM73 °FPartly sunny.5 mph44%29.53 "HgN/A
10:30 AM73 °FPartly sunny.6 mph38%29.53 "HgN/A
10:00 AM73 °FPartly sunny.7 mph41%29.53 "HgN/A
9:30 AM72 °FPartly sunny.7 mph41%29.53 "HgN/A
9:00 AM72 °FPartly sunny.12 mph44%29.56 "HgN/A
8:30 AM72 °FPartly sunny.12 mph44%29.56 "HgN/A
8:00 AM70 °FPartly sunny.13 mph50%29.56 "HgN/A
7:30 AM70 °FPartly sunny.12 mph46%29.56 "HgN/A
7:00 AM70 °FSunny.10 mph57%29.56 "Hg10 mi
6:30 AM70 °FSunny.12 mph60%29.56 "Hg10 mi
6:00 AM70 °FSunny.13 mph69%29.53 "Hg10 mi
5:30 AM70 °FPartly sunny.13 mph69%29.53 "HgN/A
5:00 AM68 °FPartly sunny.7 mph83%29.53 "HgN/A
4:30 AM68 °FPartly sunny.6 mph94%29.53 "Hg6 mi
4:00 AM68 °FPassing clouds.10 mph94%29.50 "HgN/A
3:30 AM68 °FPassing clouds.7 mph88%29.50 "HgN/A
3:00 AM68 °FPassing clouds.7 mph88%29.50 "HgN/A
2:30 AM68 °FPassing clouds.6 mph94%29.50 "HgN/A
2:00 AM68 °FPassing clouds.7 mph94%29.50 "HgN/A
1:30 AM70 °FPassing clouds.7 mph88%29.50 "HgN/A
1:00 AM70 °FPassing clouds.7 mph88%29.50 "HgN/A
12:30 AM72 °FPassing clouds.9 mph83%29.50 "HgN/A
12:00 AM70 °FPassing clouds.13 mph88%29.53 "HgN/A
11:30 PM
Tue, May 31
72 °FPassing clouds.10 mph83%29.53 "HgN/A
11:00 PM72 °FPassing clouds.13 mph83%29.53 "HgN/A
10:30 PM70 °FPassing clouds.15 mph88%29.56 "HgN/A
10:00 PM70 °FPassing clouds.17 mph88%29.53 "HgN/A
9:30 PM70 °FPassing clouds.15 mph88%29.56 "HgN/A
9:00 PM70 °FPartly cloudy.17 mph88%29.56 "HgN/A
8:30 PM72 °FPassing clouds.16 mph83%29.56 "HgN/A
8:00 PM70 °FPassing clouds.18 mph88%29.56 "HgN/A
7:30 PM70 °FPassing clouds.21 mph88%29.56 "HgN/A
7:00 PM70 °FPassing clouds.22 mph88%29.56 "HgN/A
6:30 PM70 °FPartly sunny.21 mph83%29.56 "HgN/A
6:00 PM72 °FPartly sunny.20 mph83%29.59 "HgN/A
5:30 PM72 °FPartly sunny.18 mph83%29.59 "HgN/A
5:00 PM72 °FPartly sunny.18 mph83%29.59 "HgN/A
4:30 PM72 °FPartly sunny.20 mph83%29.59 "HgN/A
4:00 PM72 °FPartly sunny.20 mph78%29.59 "HgN/A
3:30 PM73 °FPartly sunny.18 mph78%29.59 "HgN/A
3:00 PM75 °FPartly sunny.17 mph69%29.59 "HgN/A
2:30 PM75 °FPartly sunny.17 mph69%29.62 "HgN/A
2:00 PM75 °FPartly sunny.16 mph69%29.62 "HgN/A
1:30 PM75 °FPartly sunny.14 mph69%29.62 "HgN/A
1:00 PM75 °FPartly sunny.12 mph65%29.65 "HgN/A
12:30 PM75 °FPartly sunny.10 mph65%29.65 "HgN/A
12:00 PM72 °FPartly sunny.7 mph73%29.68 "HgN/A
Weather by CustomWeather, © 2016

See weather overviewHow to use our weather pages